Year,Month,Day,Hour,Minute,Value (Times are PST for temperature in C)
2015,09,27,00,00,6.30
2015,09,27,00,01,6.30
2015,09,27,00,02,6.20
2015,09,27,00,03,6.20
2015,09,27,00,04,6.20
2015,09,27,00,05,6.20
2015,09,27,00,06,6.20
2015,09,27,00,07,6.20
2015,09,27,00,08,6.20
2015,09,27,00,09,6.20
2015,09,27,00,10,6.20
2015,09,27,00,11,6.20
2015,09,27,00,12,6.20
2015,09,27,00,13,6.20
2015,09,27,00,14,6.20
2015,09,27,00,15,6.20
2015,09,27,00,16,6.20
2015,09,27,00,17,6.20
2015,09,27,00,18,6.20
2015,09,27,00,19,6.20
2015,09,27,00,20,6.20
2015,09,27,00,21,6.20
2015,09,27,00,22,6.10
2015,09,27,00,23,6.10
2015,09,27,00,24,6.10
2015,09,27,00,25,6.10
2015,09,27,00,26,6.10
2015,09,27,00,27,6.10
2015,09,27,00,28,6.00
2015,09,27,00,29,6.00
2015,09,27,00,30,6.00
2015,09,27,00,31,6.00
2015,09,27,00,32,5.90
2015,09,27,00,33,5.90
2015,09,27,00,34,5.90
2015,09,27,00,35,5.90
2015,09,27,00,36,5.90
2015,09,27,00,37,5.90
2015,09,27,00,38,5.90
2015,09,27,00,39,5.90
2015,09,27,00,40,5.90
2015,09,27,00,41,5.90
2015,09,27,00,42,5.90
2015,09,27,00,43,5.90
2015,09,27,00,44,5.90
2015,09,27,00,45,5.90
2015,09,27,00,46,5.90
2015,09,27,00,47,5.90
2015,09,27,00,48,5.90
2015,09,27,00,49,5.90
2015,09,27,00,50,5.90
2015,09,27,00,51,5.90
2015,09,27,00,52,5.90
2015,09,27,00,53,5.90
2015,09,27,00,54,5.90
2015,09,27,00,55,5.90
2015,09,27,00,56,5.90
2015,09,27,00,57,5.90
2015,09,27,00,58,5.90
2015,09,27,00,59,5.90
2015,09,27,01,00,5.90
2015,09,27,01,01,5.90
2015,09,27,01,02,5.90
2015,09,27,01,03,5.90
2015,09,27,01,04,5.90
2015,09,27,01,05,5.90
2015,09,27,01,06,5.90
2015,09,27,01,07,5.80
2015,09,27,01,08,5.90
2015,09,27,01,09,5.80
2015,09,27,01,10,5.80
2015,09,27,01,11,5.80
2015,09,27,01,12,5.80
2015,09,27,01,13,5.80
2015,09,27,01,14,5.80
2015,09,27,01,15,5.80
2015,09,27,01,16,5.80
2015,09,27,01,17,5.80
2015,09,27,01,18,5.80
2015,09,27,01,19,5.80
2015,09,27,01,20,5.80
2015,09,27,01,21,5.80
2015,09,27,01,22,5.80
2015,09,27,01,23,5.80
2015,09,27,01,24,5.80
2015,09,27,01,25,5.80
2015,09,27,01,26,5.80
2015,09,27,01,27,5.80
2015,09,27,01,28,5.80
2015,09,27,01,29,5.80
2015,09,27,01,30,5.80
2015,09,27,01,31,5.80
2015,09,27,01,32,5.80
2015,09,27,01,33,5.80
2015,09,27,01,34,5.80
2015,09,27,01,35,5.80
2015,09,27,01,36,5.80
2015,09,27,01,37,5.80
2015,09,27,01,38,5.80
2015,09,27,01,39,5.80
2015,09,27,01,40,5.80
2015,09,27,01,41,5.80
2015,09,27,01,42,5.80
2015,09,27,01,43,5.80
2015,09,27,01,44,5.80
2015,09,27,01,45,5.80
2015,09,27,01,46,5.80
2015,09,27,01,47,5.80
2015,09,27,01,48,5.90
2015,09,27,01,49,5.80
2015,09,27,01,50,5.90
2015,09,27,01,51,5.90
2015,09,27,01,52,5.90
2015,09,27,01,53,5.80
2015,09,27,01,54,5.80
2015,09,27,01,55,5.80
2015,09,27,01,56,5.80
2015,09,27,01,57,5.80
2015,09,27,01,58,5.80
2015,09,27,01,59,5.70
2015,09,27,02,00,5.70
2015,09,27,02,01,5.70
2015,09,27,02,02,5.70
2015,09,27,02,03,5.70
2015,09,27,02,04,5.70
2015,09,27,02,05,5.70
2015,09,27,02,06,5.70
2015,09,27,02,07,5.70
2015,09,27,02,08,5.60
2015,09,27,02,09,5.60
2015,09,27,02,10,5.60
2015,09,27,02,11,5.60
2015,09,27,02,12,5.60
2015,09,27,02,13,5.50
2015,09,27,02,14,5.50
2015,09,27,02,15,5.50
2015,09,27,02,16,5.50
2015,09,27,02,17,5.50
2015,09,27,02,18,5.40
2015,09,27,02,19,5.40
2015,09,27,02,20,5.40
2015,09,27,02,21,5.40
2015,09,27,02,22,5.40
2015,09,27,02,23,5.30
2015,09,27,02,24,5.30
2015,09,27,02,25,5.30
2015,09,27,02,26,5.30
2015,09,27,02,27,5.20
2015,09,27,02,28,5.20
2015,09,27,02,29,5.20
2015,09,27,02,30,5.20
2015,09,27,02,31,5.20
2015,09,27,02,32,5.20
2015,09,27,02,33,5.10
2015,09,27,02,34,5.10
2015,09,27,02,35,5.10
2015,09,27,02,36,5.10
2015,09,27,02,37,5.10
2015,09,27,02,38,5.10
2015,09,27,02,39,5.10
2015,09,27,02,40,5.10
2015,09,27,02,41,5.00
2015,09,27,02,42,5.00
2015,09,27,02,43,5.00
2015,09,27,02,44,5.00
2015,09,27,02,45,5.00
2015,09,27,02,46,4.90
2015,09,27,02,47,4.90
2015,09,27,02,48,4.90
2015,09,27,02,49,4.90
2015,09,27,02,50,4.90
2015,09,27,02,51,4.90
2015,09,27,02,52,5.00
2015,09,27,02,53,5.00
2015,09,27,02,54,5.00
2015,09,27,02,55,5.00
2015,09,27,02,56,5.00
2015,09,27,02,57,5.00
2015,09,27,02,58,5.00
2015,09,27,02,59,5.00
2015,09,27,03,00,5.00
2015,09,27,03,01,5.00
2015,09,27,03,02,4.90
2015,09,27,03,03,4.90
2015,09,27,03,04,4.90
2015,09,27,03,05,4.90
2015,09,27,03,06,4.90
2015,09,27,03,07,4.90
2015,09,27,03,08,4.90
2015,09,27,03,09,4.90
2015,09,27,03,10,4.90
2015,09,27,03,11,4.90
2015,09,27,03,12,4.90
2015,09,27,03,13,5.00
2015,09,27,03,14,5.00
2015,09,27,03,15,5.00
2015,09,27,03,16,5.00
2015,09,27,03,17,5.00
2015,09,27,03,18,5.10
2015,09,27,03,19,5.10
2015,09,27,03,20,5.10
2015,09,27,03,21,5.10
2015,09,27,03,22,5.10
2015,09,27,03,23,5.10
2015,09,27,03,24,5.20
2015,09,27,03,25,5.20
2015,09,27,03,26,5.20
2015,09,27,03,27,5.20
2015,09,27,03,28,5.20
2015,09,27,03,29,5.20
2015,09,27,03,30,5.10
2015,09,27,03,31,5.10
2015,09,27,03,32,5.10
2015,09,27,03,33,5.00
2015,09,27,03,34,5.00
2015,09,27,03,35,4.90
2015,09,27,03,36,4.90
2015,09,27,03,37,4.80
2015,09,27,03,38,4.80
2015,09,27,03,39,4.80
2015,09,27,03,40,4.80
2015,09,27,03,41,4.80
2015,09,27,03,42,4.70
2015,09,27,03,43,4.70
2015,09,27,03,44,4.70
2015,09,27,03,45,4.70
2015,09,27,03,46,4.70
2015,09,27,03,47,4.70
2015,09,27,03,48,4.70
2015,09,27,03,49,4.70
2015,09,27,03,50,4.70
2015,09,27,03,51,4.70
2015,09,27,03,52,4.70
2015,09,27,03,53,4.70
2015,09,27,03,54,4.70
2015,09,27,03,55,4.80
2015,09,27,03,56,4.80
2015,09,27,03,57,4.80
2015,09,27,03,58,4.80
2015,09,27,03,59,4.80
2015,09,27,04,00,4.90
2015,09,27,04,01,4.80
2015,09,27,04,02,4.80
2015,09,27,04,03,4.80
2015,09,27,04,04,4.80
2015,09,27,04,05,4.80
2015,09,27,04,06,4.70
2015,09,27,04,07,4.70
2015,09,27,04,08,4.70
2015,09,27,04,09,4.70
2015,09,27,04,10,4.60
2015,09,27,04,11,4.60
2015,09,27,04,12,4.60
2015,09,27,04,13,4.60
2015,09,27,04,14,4.60
2015,09,27,04,15,4.60
2015,09,27,04,16,4.60
2015,09,27,04,17,4.60
2015,09,27,04,18,4.60
2015,09,27,04,19,4.60
2015,09,27,04,20,4.60
2015,09,27,04,21,4.60
2015,09,27,04,22,4.60
2015,09,27,04,23,4.60
2015,09,27,04,24,4.60
2015,09,27,04,25,4.50
2015,09,27,04,26,4.50
2015,09,27,04,27,4.50
2015,09,27,04,28,4.40
2015,09,27,04,29,4.40
2015,09,27,04,30,4.40
2015,09,27,04,31,4.40
2015,09,27,04,32,4.30
2015,09,27,04,33,4.30
2015,09,27,04,34,4.30
2015,09,27,04,35,4.30
2015,09,27,04,36,4.30
2015,09,27,04,37,4.20
2015,09,27,04,38,4.20
2015,09,27,04,39,4.20
2015,09,27,04,40,4.20
2015,09,27,04,41,4.20
2015,09,27,04,42,4.20
2015,09,27,04,43,4.30
2015,09,27,04,44,4.30
2015,09,27,04,45,4.30
2015,09,27,04,46,4.30
2015,09,27,04,47,4.30
2015,09,27,04,48,4.20
2015,09,27,04,49,4.20
2015,09,27,04,50,4.20
2015,09,27,04,51,4.20
2015,09,27,04,52,4.10
2015,09,27,04,53,4.10
2015,09,27,04,54,4.10
2015,09,27,04,55,4.10
2015,09,27,04,56,4.10
2015,09,27,04,57,4.10
2015,09,27,04,58,4.00
2015,09,27,04,59,4.00
2015,09,27,05,00,4.00
2015,09,27,05,01,3.90
2015,09,27,05,02,3.90
2015,09,27,05,03,3.90
2015,09,27,05,04,3.90
2015,09,27,05,05,3.90
2015,09,27,05,06,3.90
2015,09,27,05,07,3.90
2015,09,27,05,08,4.00
2015,09,27,05,09,4.00
2015,09,27,05,10,4.00
2015,09,27,05,11,4.10
2015,09,27,05,12,4.10
2015,09,27,05,13,4.10
2015,09,27,05,14,4.10
2015,09,27,05,15,4.20
2015,09,27,05,16,4.20
2015,09,27,05,17,4.20
2015,09,27,05,18,4.20
2015,09,27,05,19,4.20
2015,09,27,05,20,4.20
2015,09,27,05,21,4.20
2015,09,27,05,22,4.20
2015,09,27,05,23,4.20
2015,09,27,05,24,4.10
2015,09,27,05,25,4.10
2015,09,27,05,26,4.10
2015,09,27,05,27,4.10
2015,09,27,05,28,4.10
2015,09,27,05,29,4.10
2015,09,27,05,30,4.10
2015,09,27,05,31,4.10
2015,09,27,05,32,4.10
2015,09,27,05,33,4.10
2015,09,27,05,34,4.00
2015,09,27,05,35,4.10
2015,09,27,05,36,4.00
2015,09,27,05,37,4.00
2015,09,27,05,38,4.00
2015,09,27,05,39,4.00
2015,09,27,05,40,3.90
2015,09,27,05,41,3.90
2015,09,27,05,42,3.90
2015,09,27,05,43,3.90
2015,09,27,05,44,3.80
2015,09,27,05,45,3.80
2015,09,27,05,46,3.80
2015,09,27,05,47,3.80
2015,09,27,05,48,3.80
2015,09,27,05,49,3.70
2015,09,27,05,50,3.70
2015,09,27,05,51,3.70
2015,09,27,05,52,3.70
2015,09,27,05,53,3.70
2015,09,27,05,54,3.70
2015,09,27,05,55,3.60
2015,09,27,05,56,3.70
2015,09,27,05,57,3.70
2015,09,27,05,58,3.70
2015,09,27,05,59,3.60
2015,09,27,06,00,3.60
2015,09,27,06,01,3.60
2015,09,27,06,02,3.60
2015,09,27,06,03,3.60
2015,09,27,06,04,3.60
2015,09,27,06,05,3.60
2015,09,27,06,06,3.60
2015,09,27,06,07,3.60
2015,09,27,06,08,3.50
2015,09,27,06,09,3.50
2015,09,27,06,10,3.50
2015,09,27,06,11,3.50
2015,09,27,06,12,3.60
2015,09,27,06,13,3.60
2015,09,27,06,14,3.60
2015,09,27,06,15,3.70
2015,09,27,06,16,3.70
2015,09,27,06,17,3.70
2015,09,27,06,18,3.70
2015,09,27,06,19,3.70
2015,09,27,06,20,3.70
2015,09,27,06,21,3.70
2015,09,27,06,22,3.70
2015,09,27,06,23,3.70
2015,09,27,06,24,3.70
2015,09,27,06,25,3.70
2015,09,27,06,26,3.70
2015,09,27,06,27,3.70
2015,09,27,06,28,3.70
2015,09,27,06,29,3.70
2015,09,27,06,30,3.70
2015,09,27,06,31,3.70
2015,09,27,06,32,3.70
2015,09,27,06,33,3.70
2015,09,27,06,34,3.80
2015,09,27,06,35,3.80
2015,09,27,06,36,3.80
2015,09,27,06,37,3.80
2015,09,27,06,38,3.80
2015,09,27,06,39,3.70
2015,09,27,06,40,3.70
2015,09,27,06,41,3.70
2015,09,27,06,42,3.70
2015,09,27,06,43,3.70
2015,09,27,06,44,3.70
2015,09,27,06,45,3.60
2015,09,27,06,46,3.70
2015,09,27,06,47,3.70
2015,09,27,06,48,3.70
2015,09,27,06,49,3.70
2015,09,27,06,50,3.70
2015,09,27,06,51,3.70
2015,09,27,06,52,3.70
2015,09,27,06,53,3.70
2015,09,27,06,54,3.70
2015,09,27,06,55,3.60
2015,09,27,06,56,3.60
2015,09,27,06,57,3.60
2015,09,27,06,58,3.60
2015,09,27,06,59,3.60
2015,09,27,07,00,3.60
2015,09,27,07,01,3.60
2015,09,27,07,02,3.60
2015,09,27,07,03,3.60
2015,09,27,07,04,3.60
2015,09,27,07,05,3.60
2015,09,27,07,06,3.60
2015,09,27,07,07,3.60
2015,09,27,07,08,3.60
2015,09,27,07,09,3.60
2015,09,27,07,10,3.60
2015,09,27,07,11,3.60
2015,09,27,07,12,3.60
2015,09,27,07,13,3.60
2015,09,27,07,14,3.60
2015,09,27,07,15,3.60
2015,09,27,07,16,3.60
2015,09,27,07,17,3.60
2015,09,27,07,18,3.60
2015,09,27,07,19,3.60
2015,09,27,07,20,3.60
2015,09,27,07,21,3.60
2015,09,27,07,22,3.60
2015,09,27,07,23,3.60
2015,09,27,07,24,3.60
2015,09,27,07,25,3.60
2015,09,27,07,26,3.50
2015,09,27,07,27,3.50
2015,09,27,07,28,3.50
2015,09,27,07,29,3.50
2015,09,27,07,30,3.50
2015,09,27,07,31,3.50
2015,09,27,07,32,3.50
2015,09,27,07,33,3.50
2015,09,27,07,34,3.50
2015,09,27,07,35,3.60
2015,09,27,07,36,3.60
2015,09,27,07,37,3.60
2015,09,27,07,38,3.60
2015,09,27,07,39,3.60
2015,09,27,07,40,3.60
2015,09,27,07,41,3.70
2015,09,27,07,42,3.70
2015,09,27,07,43,3.70
2015,09,27,07,44,3.70
2015,09,27,07,45,3.80
2015,09,27,07,46,3.80
2015,09,27,07,47,3.80
2015,09,27,07,48,3.80
2015,09,27,07,49,3.80
2015,09,27,07,50,3.90
2015,09,27,07,51,3.90
2015,09,27,07,52,3.90
2015,09,27,07,53,4.00
2015,09,27,07,54,4.00
2015,09,27,07,55,4.10
2015,09,27,07,56,4.10
2015,09,27,07,57,4.20
2015,09,27,07,58,4.20
2015,09,27,07,59,4.30
2015,09,27,08,00,4.40
2015,09,27,08,01,4.40
2015,09,27,08,02,4.40
2015,09,27,08,03,4.50
2015,09,27,08,04,4.60
2015,09,27,08,05,4.60
2015,09,27,08,06,4.60
2015,09,27,08,07,4.70
2015,09,27,08,08,4.70
2015,09,27,08,09,4.70
2015,09,27,08,10,4.70
2015,09,27,08,11,4.70
2015,09,27,08,12,4.80
2015,09,27,08,13,4.80
2015,09,27,08,14,4.80
2015,09,27,08,15,4.80
2015,09,27,08,16,4.90
2015,09,27,08,17,4.90
2015,09,27,08,18,5.00
2015,09,27,08,19,5.00
2015,09,27,08,20,5.10
2015,09,27,08,21,5.10
2015,09,27,08,22,5.10
2015,09,27,08,23,5.20
2015,09,27,08,24,5.20
2015,09,27,08,25,5.20
2015,09,27,08,26,5.30
2015,09,27,08,27,5.30
2015,09,27,08,28,5.30
2015,09,27,08,29,5.30
2015,09,27,08,30,5.40
2015,09,27,08,31,5.40
2015,09,27,08,32,5.40
2015,09,27,08,33,5.50
2015,09,27,08,34,5.50
2015,09,27,08,35,5.50
2015,09,27,08,36,5.60
2015,09,27,08,37,5.60
2015,09,27,08,38,5.60
2015,09,27,08,39,5.70
2015,09,27,08,40,5.70
2015,09,27,08,41,5.80
2015,09,27,08,42,5.80
2015,09,27,08,43,5.90
2015,09,27,08,44,5.90
2015,09,27,08,45,6.00
2015,09,27,08,46,6.00
2015,09,27,08,47,6.00
2015,09,27,08,48,6.10
2015,09,27,08,49,6.10
2015,09,27,08,50,6.20
2015,09,27,08,51,6.30
2015,09,27,08,52,6.30
2015,09,27,08,53,6.40
2015,09,27,08,54,6.50
2015,09,27,08,55,6.60
2015,09,27,08,56,6.70
2015,09,27,08,57,6.80
2015,09,27,08,58,6.90
2015,09,27,08,59,7.10
2015,09,27,09,00,7.20
2015,09,27,09,01,7.30
2015,09,27,09,02,7.40
2015,09,27,09,03,7.50
2015,09,27,09,04,7.70
2015,09,27,09,05,7.80
2015,09,27,09,06,7.90
2015,09,27,09,07,8.00
2015,09,27,09,08,8.10
2015,09,27,09,09,8.30
2015,09,27,09,10,8.40
2015,09,27,09,11,8.50
2015,09,27,09,12,8.60
2015,09,27,09,13,8.70
2015,09,27,09,14,8.80
2015,09,27,09,15,9.00
2015,09,27,09,16,9.10
2015,09,27,09,17,9.20
2015,09,27,09,18,9.30
2015,09,27,09,19,9.40
2015,09,27,09,20,9.40
2015,09,27,09,21,9.50
2015,09,27,09,22,9.50
2015,09,27,09,23,9.60
2015,09,27,09,24,9.60
2015,09,27,09,25,9.70
2015,09,27,09,26,9.70
2015,09,27,09,27,9.70
2015,09,27,09,28,9.80
2015,09,27,09,29,9.80
2015,09,27,09,30,9.80
2015,09,27,09,31,9.80
2015,09,27,09,32,9.90
2015,09,27,09,33,10.00
2015,09,27,09,34,10.10
2015,09,27,09,35,10.10
2015,09,27,09,36,10.20
2015,09,27,09,37,10.20
2015,09,27,09,38,10.30
2015,09,27,09,39,10.30
2015,09,27,09,40,10.50
2015,09,27,09,41,10.60
2015,09,27,09,42,10.70
2015,09,27,09,43,10.80
2015,09,27,09,44,10.90
2015,09,27,09,45,11.00
2015,09,27,09,46,11.10
2015,09,27,09,47,11.30
2015,09,27,09,48,11.40
2015,09,27,09,49,11.50
2015,09,27,09,50,11.70
2015,09,27,09,51,11.80
2015,09,27,09,52,11.90
2015,09,27,09,53,12.00
2015,09,27,09,54,12.10
2015,09,27,09,55,12.20
2015,09,27,09,56,12.30
2015,09,27,09,57,12.40
2015,09,27,09,58,12.50
2015,09,27,09,59,12.60
2015,09,27,10,00,12.60
2015,09,27,10,01,12.60
2015,09,27,10,02,12.60
2015,09,27,10,03,12.70
2015,09,27,10,04,12.70
2015,09,27,10,05,12.70
2015,09,27,10,06,12.80
2015,09,27,10,07,12.90
2015,09,27,10,08,12.90
2015,09,27,10,09,12.90
2015,09,27,10,10,13.00
2015,09,27,10,11,13.00
2015,09,27,10,12,13.10
2015,09,27,10,13,13.10
2015,09,27,10,14,13.10
2015,09,27,10,15,13.10
2015,09,27,10,16,13.20
2015,09,27,10,17,13.20
2015,09,27,10,18,13.30
2015,09,27,10,19,13.40
2015,09,27,10,20,13.40
2015,09,27,10,21,13.50
2015,09,27,10,22,13.60
2015,09,27,10,23,13.60
2015,09,27,10,24,13.50
2015,09,27,10,25,13.50
2015,09,27,10,26,13.50
2015,09,27,10,27,13.50
2015,09,27,10,28,13.60
2015,09,27,10,29,13.60
2015,09,27,10,30,13.70
2015,09,27,10,31,13.70
2015,09,27,10,32,13.70
2015,09,27,10,33,13.70
2015,09,27,10,34,13.80
2015,09,27,10,35,13.80
2015,09,27,10,36,13.80
2015,09,27,10,37,13.90
2015,09,27,10,38,13.90
2015,09,27,10,39,13.90
2015,09,27,10,40,13.90
2015,09,27,10,41,13.80
2015,09,27,10,42,13.80
2015,09,27,10,43,13.80
2015,09,27,10,44,13.90
2015,09,27,10,45,13.90
2015,09,27,10,46,14.00
2015,09,27,10,47,14.10
2015,09,27,10,48,14.10
2015,09,27,10,49,14.20
2015,09,27,10,50,14.10
2015,09,27,10,51,14.10
2015,09,27,10,52,14.00
2015,09,27,10,53,14.00
2015,09,27,10,54,14.00
2015,09,27,10,55,14.00
2015,09,27,10,56,14.00
2015,09,27,10,57,14.00
2015,09,27,10,58,14.10
2015,09,27,10,59,14.10
2015,09,27,11,00,14.10
2015,09,27,11,01,14.10
2015,09,27,11,02,14.20
2015,09,27,11,03,14.20
2015,09,27,11,04,14.30
2015,09,27,11,05,14.40
2015,09,27,11,06,14.50
2015,09,27,11,07,14.60
2015,09,27,11,08,14.60
2015,09,27,11,09,14.70
2015,09,27,11,10,14.70
2015,09,27,11,11,14.70
2015,09,27,11,12,14.70
2015,09,27,11,13,14.80
2015,09,27,11,14,14.80
2015,09,27,11,15,14.80
2015,09,27,11,16,14.80
2015,09,27,11,17,14.80
2015,09,27,11,18,14.80
2015,09,27,11,19,14.80
2015,09,27,11,20,14.80
2015,09,27,11,21,14.80
2015,09,27,11,22,14.80
2015,09,27,11,23,14.80
2015,09,27,11,24,14.70
2015,09,27,11,25,14.60
2015,09,27,11,26,14.50
2015,09,27,11,27,14.50
2015,09,27,11,28,14.40
2015,09,27,11,29,14.40
2015,09,27,11,30,14.40
2015,09,27,11,31,14.40
2015,09,27,11,32,14.30
2015,09,27,11,33,14.30
2015,09,27,11,34,14.40
2015,09,27,11,35,14.40
2015,09,27,11,36,14.40
2015,09,27,11,37,14.40
2015,09,27,11,38,14.50
2015,09,27,11,39,14.50
2015,09,27,11,40,14.60
2015,09,27,11,41,14.60
2015,09,27,11,42,14.70
2015,09,27,11,43,14.70
2015,09,27,11,44,14.70
2015,09,27,11,45,14.70
2015,09,27,11,46,14.70
2015,09,27,11,47,14.60
2015,09,27,11,48,14.50
2015,09,27,11,49,14.40
2015,09,27,11,50,14.50
2015,09,27,11,51,14.50
2015,09,27,11,52,14.60
2015,09,27,11,53,14.70
2015,09,27,11,54,14.80
2015,09,27,11,55,14.80
2015,09,27,11,56,14.80
2015,09,27,11,57,14.80
2015,09,27,11,58,14.80
2015,09,27,11,59,14.80
2015,09,27,12,00,14.80
2015,09,27,12,01,14.80
2015,09,27,12,02,14.80
2015,09,27,12,03,14.80
2015,09,27,12,04,14.80
2015,09,27,12,05,14.80
2015,09,27,12,06,14.90
2015,09,27,12,07,14.90
2015,09,27,12,08,15.00
2015,09,27,12,09,15.00
2015,09,27,12,10,15.10
2015,09,27,12,11,15.10
2015,09,27,12,12,15.10
2015,09,27,12,13,15.10
2015,09,27,12,14,15.10
2015,09,27,12,15,15.10
2015,09,27,12,16,15.10
2015,09,27,12,17,15.10
2015,09,27,12,18,15.20
2015,09,27,12,19,15.30
2015,09,27,12,20,15.40
2015,09,27,12,21,15.30
2015,09,27,12,22,15.30
2015,09,27,12,23,15.20
2015,09,27,12,24,15.20
2015,09,27,12,25,15.20
2015,09,27,12,26,15.20
2015,09,27,12,27,15.30
2015,09,27,12,28,15.30
2015,09,27,12,29,15.30
2015,09,27,12,30,15.30
2015,09,27,12,31,15.30
2015,09,27,12,32,15.20
2015,09,27,12,33,15.20
2015,09,27,12,34,15.20
2015,09,27,12,35,15.20
2015,09,27,12,36,15.20
2015,09,27,12,37,15.30
2015,09,27,12,38,15.30
2015,09,27,12,39,15.30
2015,09,27,12,40,15.30
2015,09,27,12,41,15.30
2015,09,27,12,42,15.30
2015,09,27,12,43,15.30
2015,09,27,12,44,15.30
2015,09,27,12,45,15.30
2015,09,27,12,46,15.40
2015,09,27,12,47,15.40
2015,09,27,12,48,15.50
2015,09,27,12,49,15.60
2015,09,27,12,50,15.60
2015,09,27,12,51,15.60
2015,09,27,12,52,15.50
2015,09,27,12,53,15.50
2015,09,27,12,54,15.40
2015,09,27,12,55,15.40
2015,09,27,12,56,15.50
2015,09,27,12,57,15.60
2015,09,27,12,58,15.70
2015,09,27,12,59,15.70
2015,09,27,13,00,15.80
2015,09,27,13,01,15.80
2015,09,27,13,02,15.90
2015,09,27,13,03,16.00
2015,09,27,13,04,16.10
2015,09,27,13,05,16.20
2015,09,27,13,06,16.30
2015,09,27,13,07,16.40
2015,09,27,13,08,16.40
2015,09,27,13,09,16.40
2015,09,27,13,10,16.40
2015,09,27,13,11,16.50
2015,09,27,13,12,16.40
2015,09,27,13,13,16.40
2015,09,27,13,14,16.40
2015,09,27,13,15,16.50
2015,09,27,13,16,16.60
2015,09,27,13,17,16.60
2015,09,27,13,18,16.60
2015,09,27,13,19,16.60
2015,09,27,13,20,16.60
2015,09,27,13,21,16.50
2015,09,27,13,22,16.50
2015,09,27,13,23,16.50
2015,09,27,13,24,16.30
2015,09,27,13,25,16.10
2015,09,27,13,26,16.00
2015,09,27,13,27,15.90
2015,09,27,13,28,15.90
2015,09,27,13,29,15.80
2015,09,27,13,30,15.70
2015,09,27,13,31,15.50
2015,09,27,13,32,15.40
2015,09,27,13,33,15.40
2015,09,27,13,34,15.40
2015,09,27,13,35,15.40
2015,09,27,13,36,15.50
2015,09,27,13,37,15.60
2015,09,27,13,38,15.50
2015,09,27,13,39,15.50
2015,09,27,13,40,15.40
2015,09,27,13,41,15.30
2015,09,27,13,42,15.20
2015,09,27,13,43,15.10
2015,09,27,13,44,15.00
2015,09,27,13,45,15.00
2015,09,27,13,46,14.90
2015,09,27,13,47,14.90
2015,09,27,13,48,14.90
2015,09,27,13,49,15.00
2015,09,27,13,50,15.00
2015,09,27,13,51,15.00
2015,09,27,13,52,15.10
2015,09,27,13,53,15.10
2015,09,27,13,54,15.20
2015,09,27,13,55,15.10
2015,09,27,13,56,15.10
2015,09,27,13,57,15.00
2015,09,27,13,58,14.80
2015,09,27,13,59,14.70
2015,09,27,14,00,14.60
2015,09,27,14,01,14.50
2015,09,27,14,02,14.50
2015,09,27,14,03,14.50
2015,09,27,14,04,14.50
2015,09,27,14,05,14.50
2015,09,27,14,06,14.50
2015,09,27,14,07,14.50
2015,09,27,14,08,14.50
2015,09,27,14,09,14.60
2015,09,27,14,10,14.60
2015,09,27,14,11,14.50
2015,09,27,14,12,14.60
2015,09,27,14,13,14.60
2015,09,27,14,14,14.70
2015,09,27,14,15,14.80
2015,09,27,14,16,14.90
2015,09,27,14,17,15.00
2015,09,27,14,18,15.10
2015,09,27,14,19,15.10
2015,09,27,14,20,15.10
2015,09,27,14,21,15.10
2015,09,27,14,22,15.10
2015,09,27,14,23,15.00
2015,09,27,14,24,14.90
2015,09,27,14,25,14.90
2015,09,27,14,26,14.90
2015,09,27,14,27,14.90
2015,09,27,14,28,14.80
2015,09,27,14,29,14.80
2015,09,27,14,30,14.70
2015,09,27,14,31,14.70
2015,09,27,14,32,14.60
2015,09,27,14,33,14.60
2015,09,27,14,34,14.60
2015,09,27,14,35,14.60
2015,09,27,14,36,14.60
2015,09,27,14,37,14.60
2015,09,27,14,38,14.60
2015,09,27,14,39,14.70
2015,09,27,14,40,14.70
2015,09,27,14,41,14.70
2015,09,27,14,42,14.70
2015,09,27,14,43,14.70
2015,09,27,14,44,14.80
2015,09,27,14,45,14.80
2015,09,27,14,46,14.80
2015,09,27,14,47,14.80
2015,09,27,14,48,14.80
2015,09,27,14,49,14.80
2015,09,27,14,50,14.80
2015,09,27,14,51,14.90
2015,09,27,14,52,14.90
2015,09,27,14,53,15.00
2015,09,27,14,54,15.00
2015,09,27,14,55,15.10
2015,09,27,14,56,15.00
2015,09,27,14,57,15.00
2015,09,27,14,58,15.00
2015,09,27,14,59,14.90
2015,09,27,15,00,14.90
2015,09,27,15,01,14.90
2015,09,27,15,02,14.90
2015,09,27,15,03,14.80
2015,09,27,15,04,14.80
2015,09,27,15,05,14.80
2015,09,27,15,06,14.70
2015,09,27,15,07,14.70
2015,09,27,15,08,14.70
2015,09,27,15,09,14.60
2015,09,27,15,10,14.60
2015,09,27,15,11,14.60
2015,09,27,15,12,14.50
2015,09,27,15,13,14.50
2015,09,27,15,14,14.40
2015,09,27,15,15,14.40
2015,09,27,15,16,14.40
2015,09,27,15,17,14.40
2015,09,27,15,18,14.40
2015,09,27,15,19,14.30
2015,09,27,15,20,14.30
2015,09,27,15,21,14.30
2015,09,27,15,22,14.30
2015,09,27,15,23,14.30
2015,09,27,15,24,14.30
2015,09,27,15,25,14.30
2015,09,27,15,26,14.30
2015,09,27,15,27,14.30
2015,09,27,15,28,14.20
2015,09,27,15,29,14.20
2015,09,27,15,30,14.20
2015,09,27,15,31,14.20
2015,09,27,15,32,14.20
2015,09,27,15,33,14.20
2015,09,27,15,34,14.20
2015,09,27,15,35,14.30
2015,09,27,15,36,14.30
2015,09,27,15,37,14.30
2015,09,27,15,38,14.30
2015,09,27,15,39,14.30
2015,09,27,15,40,14.30
2015,09,27,15,41,14.30
2015,09,27,15,42,14.30
2015,09,27,15,43,14.30
2015,09,27,15,44,14.30
2015,09,27,15,45,14.30
2015,09,27,15,46,14.30
2015,09,27,15,47,14.30
2015,09,27,15,48,14.30
2015,09,27,15,49,14.30
2015,09,27,15,50,14.30
2015,09,27,15,51,14.30
2015,09,27,15,52,14.30
2015,09,27,15,53,14.30
2015,09,27,15,54,14.30
2015,09,27,15,55,14.20
2015,09,27,15,56,14.20
2015,09,27,15,57,14.20
2015,09,27,15,58,14.20
2015,09,27,15,59,14.30
2015,09,27,16,00,14.30
2015,09,27,16,01,14.30
2015,09,27,16,02,14.30
2015,09,27,16,03,14.30
2015,09,27,16,04,14.30
2015,09,27,16,05,14.30
2015,09,27,16,06,14.30
2015,09,27,16,07,14.30
2015,09,27,16,08,14.30
2015,09,27,16,09,14.30
2015,09,27,16,10,14.40
2015,09,27,16,11,14.40
2015,09,27,16,12,14.40
2015,09,27,16,13,14.40
2015,09,27,16,14,14.40
2015,09,27,16,15,14.50
2015,09,27,16,16,14.50
2015,09,27,16,17,14.50
2015,09,27,16,18,14.50
2015,09,27,16,19,14.50
2015,09,27,16,20,14.40
2015,09,27,16,21,14.40
2015,09,27,16,22,14.40
2015,09,27,16,23,14.40
2015,09,27,16,24,14.40
2015,09,27,16,25,14.40
2015,09,27,16,26,14.40
2015,09,27,16,27,14.40
2015,09,27,16,28,14.40
2015,09,27,16,29,14.30
2015,09,27,16,30,14.30
2015,09,27,16,31,14.30
2015,09,27,16,32,14.30
2015,09,27,16,33,14.30
2015,09,27,16,34,14.30
2015,09,27,16,35,14.30
2015,09,27,16,36,14.20
2015,09,27,16,37,14.20
2015,09,27,16,38,14.20
2015,09,27,16,39,14.20
2015,09,27,16,40,14.20
2015,09,27,16,41,14.20
2015,09,27,16,42,14.20
2015,09,27,16,43,14.20
2015,09,27,16,44,14.20
2015,09,27,16,45,14.20
2015,09,27,16,46,14.20
2015,09,27,16,47,14.20
2015,09,27,16,48,14.20
2015,09,27,16,49,14.10
2015,09,27,16,50,14.10
2015,09,27,16,51,14.10
2015,09,27,16,52,14.10
2015,09,27,16,53,14.10
2015,09,27,16,54,14.10
2015,09,27,16,55,14.10
2015,09,27,16,56,14.10
2015,09,27,16,57,14.10
2015,09,27,16,58,14.10
2015,09,27,16,59,14.10
2015,09,27,17,00,14.00
2015,09,27,17,01,14.00
2015,09,27,17,02,14.00
2015,09,27,17,03,14.00
2015,09,27,17,04,14.00
2015,09,27,17,05,14.00
2015,09,27,17,06,14.00
2015,09,27,17,07,14.00
2015,09,27,17,08,14.00
2015,09,27,17,09,14.00
2015,09,27,17,10,14.00
2015,09,27,17,11,14.00
2015,09,27,17,12,14.00
2015,09,27,17,13,13.90
2015,09,27,17,14,13.90
2015,09,27,17,15,13.90
2015,09,27,17,16,13.90
2015,09,27,17,17,13.90
2015,09,27,17,18,13.80
2015,09,27,17,19,13.80
2015,09,27,17,20,13.70
2015,09,27,17,21,13.70
2015,09,27,17,22,13.60
2015,09,27,17,23,13.50
2015,09,27,17,24,13.50
2015,09,27,17,25,13.40
2015,09,27,17,26,13.40
2015,09,27,17,27,13.30
2015,09,27,17,28,13.30
2015,09,27,17,29,13.30
2015,09,27,17,30,13.20
2015,09,27,17,31,13.20
2015,09,27,17,32,13.20
2015,09,27,17,33,13.10
2015,09,27,17,34,13.10
2015,09,27,17,35,13.10
2015,09,27,17,36,13.00
2015,09,27,17,37,13.00
2015,09,27,17,38,12.90
2015,09,27,17,39,12.90
2015,09,27,17,40,12.80
2015,09,27,17,41,12.80
2015,09,27,17,42,12.70
2015,09,27,17,43,12.70
2015,09,27,17,44,12.70